カタログに戻る

ARIANE 44L DEB

LostHEO
NORAD 28574·DEBRIS·🇫🇷 France

打ち上げ Jan 15, 1991 から Guiana Space Centre

Loading…

次のパス (今後24時間)

TLE

古いSource: Space-Track

元期: Oct 4, 2025, 09:47 UTC

1 28574U 91003P   25277.40793293  .00001780  00000-0  69615-2 0  9994
2 28574   6.3722 221.3164 6579015 114.5557 324.9556  3.05113264132069

AllMySatでARIANE 44L DEBをリアルタイム追跡

Download on the App Store